Weather History for Parsons, KS

Change the Weather History Date:

Wednesday, April 10, 2013

  Actual Average Record
Temperature  
Mean Temperature 40 °F -  
Max Temperature 46 °F 66 °F 85 °F (1992)
Min Temperature 35 °F 42 °F 27 °F (1952)
Degree Days  
Heating Degree Days 24    
Moisture  
Dew Point 36 °F    
Average Humidity 89    
Maximum Humidity 93    
Minimum Humidity 80    
Precipitation  
Precipitation 0.28 in - - ()
Sea Level Pressure  
Sea Level Pressure 29.88 in    
Wind  
Wind Speed 14 mph (NW)    
Max Wind Speed 22 mph    
Max Gust Speed 32 mph    
Visibility 8 miles    
Events Rain , Thunderstorm    
Averages and records for this station are not official NWS values.
T = Trace of Precipitation, MM = Missing Value Source: NWS Daily Summary

Daily Weather History Graph

Daily Weather History Graph

Search for Another Location

Airport:

Trip Planner

Search our weather history database for the weather conditions in past years. The results will help you decide how hot, cold, wet, or windy it might be!

Date:

Astronomy

Apr. 10, 2013 Rise Set
Actual Time 6:54 AM CDT 7:52 PM CDT
Civil Twilight 6:27 AM CDT 8:19 PM CDT
Nautical Twilight 5:55 AM CDT 8:51 PM CDT
Astronomical Twilight 5:23 AM CDT 9:24 PM CDT
Moon 6:51 AM CDT (4/10) 8:28 PM CDT (4/10)
Length of Visible Light 13h 52m
Length of Day
12h 58m
New Moon, 0% of the Moon is Illuminated
Apr 10
New Moon
Apr 18
First Quarter
Apr 25
Full
May 2
Last Quarter
May 9
New

Hourly Weather History & Observations

Time (CDT) Temp. Windchill Dew Point Humidity Pressure Visibility Wind Dir Wind Speed Gust Speed Precip Events Conditions
12:52 AM 46.9 °F - 41.0 °F 80% 29.81 in 10.0 mi NW 21.9 mph 32.2 mph 0.00 in   Overcast
1:52 AM 45.0 °F 40.1 °F 41.0 °F 86% 29.80 in 10.0 mi North 9.2 mph 17.3 mph 0.00 in   Overcast
2:25 AM 46.4 °F 45.2 °F 42.8 °F 87% 29.79 in 10.0 mi NNE 3.5 mph - N/A Thunderstorm Overcast
2:36 AM 46.4 °F 41.9 °F 42.8 °F 87% 29.79 in 10.0 mi NW 9.2 mph - 0.00 in Rain Light Rain
2:43 AM 46.4 °F 39.8 °F 42.8 °F 87% 29.81 in 10.0 mi NW 16.1 mph 20.7 mph 0.00 in Rain Light Rain
2:46 AM 46.4 °F 41.1 °F 42.8 °F 87% 29.79 in 10.0 mi NNW 11.5 mph 20.7 mph 0.00 in Rain , Thunderstorm Light Rain
2:52 AM 46.0 °F 39.0 °F 43.0 °F 89% 29.84 in 10.0 mi West 17.3 mph 21.9 mph 0.00 in Rain , Thunderstorm Light Rain
2:55 AM 46.4 °F 41.1 °F 42.8 °F 87% 29.84 in 10.0 mi NW 11.5 mph 21.9 mph 0.00 in Rain , Thunderstorm Light Rain
3:07 AM 44.6 °F 39.2 °F 41.0 °F 87% 29.87 in 1.8 mi WNW 10.4 mph 23.0 mph 0.17 in Rain , Thunderstorm Heavy Thunderstorms and Rain
3:19 AM 44.6 °F 38.4 °F 41.0 °F 87% 29.87 in 3.0 mi NW 12.7 mph - 0.22 in Rain , Thunderstorm Thunderstorms and Rain
3:49 AM 42.8 °F 35.1 °F 39.2 °F 87% 29.88 in 10.0 mi NW 16.1 mph - 0.22 in Rain Light Rain
3:52 AM 42.1 °F 34.5 °F 39.0 °F 89% 29.87 in 10.0 mi NW 15.0 mph - 0.22 in Rain Light Rain
4:23 AM 39.2 °F 32.5 °F 37.4 °F 93% 29.86 in 10.0 mi NW 10.4 mph 20.7 mph 0.00 in Rain Light Rain
4:35 AM 39.2 °F 31.2 °F 37.4 °F 93% 29.90 in 10.0 mi WNW 13.8 mph - 0.00 in Rain Light Rain
4:52 AM 39.9 °F 31.4 °F 37.0 °F 89% 29.89 in 10.0 mi NW 16.1 mph 23.0 mph 0.00 in Rain Light Rain
5:52 AM 39.0 °F 31.0 °F 35.1 °F 86% 29.87 in 10.0 mi NNW 13.8 mph 24.2 mph 0.00 in   Overcast
6:52 AM 39.0 °F 33.4 °F 36.0 °F 89% 29.85 in 10.0 mi North 8.1 mph 20.7 mph N/A   Overcast
6:56 AM 39.2 °F 33.0 °F 35.6 °F 87% 29.88 in 10.0 mi NNW 9.2 mph - 0.00 in Rain , Thunderstorm Light Thunderstorms and Rain
7:52 AM 39.0 °F 31.8 °F 36.0 °F 89% 29.92 in 10.0 mi NW 11.5 mph - 0.03 in Thunderstorm Overcast
8:03 AM 39.2 °F 30.2 °F 35.6 °F 87% 29.90 in 10.0 mi NW 17.3 mph 27.6 mph 0.00 in Rain Light Rain
8:27 AM 37.4 °F 28.5 °F 35.6 °F 93% 29.94 in 10.0 mi WNW 15.0 mph 21.9 mph 0.00 in Rain Light Rain
8:34 AM 37.4 °F 28.9 °F 35.6 °F 93% 29.96 in 10.0 mi WNW 13.8 mph - 0.00 in Rain Light Rain
8:42 AM 37.4 °F 28.5 °F 35.6 °F 93% 29.94 in 3.0 mi NW 15.0 mph - 0.03 in Rain , Thunderstorm Heavy Rain
8:49 AM 37.4 °F 28.9 °F 35.6 °F 93% 29.94 in 2.5 mi NW 13.8 mph 20.7 mph 0.03 in Rain , Thunderstorm Heavy Rain
8:52 AM 37.0 °F 27.4 °F 35.1 °F 93% 29.94 in 3.0 mi NW 17.3 mph 23.0 mph 0.03 in Rain Rain
9:12 AM 37.4 °F 29.3 °F 33.8 °F 87% 29.91 in 8.0 mi NNW 12.7 mph 23.0 mph 0.00 in Rain Light Rain
9:24 AM 37.4 °F 28.5 °F 35.6 °F 93% 29.90 in 10.0 mi NNW 15.0 mph 23.0 mph 0.00 in Rain Light Rain
9:52 AM 37.9 °F 29.6 °F 35.1 °F 89% 29.87 in 10.0 mi North 13.8 mph - 0.00 in   Overcast
10:52 AM 39.0 °F 30.6 °F 35.1 °F 86% 29.91 in 10.0 mi NW 15.0 mph 20.7 mph 0.00 in Rain Light Rain
11:52 AM 39.9 °F 32.9 °F 36.0 °F 86% 29.91 in 10.0 mi NNW 11.5 mph - 0.00 in   Overcast
12:52 PM 39.0 °F 31.0 °F 35.1 °F 86% 29.91 in 10.0 mi NW 13.8 mph 21.9 mph N/A   Overcast
1:36 PM 37.4 °F 28.5 °F 35.6 °F 93% 29.91 in 2.5 mi NW 15.0 mph - 0.00 in Rain Rain
1:45 PM 39.2 °F 31.2 °F 35.6 °F 87% 29.91 in 3.0 mi NW 13.8 mph - N/A Rain Rain
1:52 PM 39.0 °F 31.4 °F 36.0 °F 89% 29.92 in 5.0 mi NW 12.7 mph - N/A Rain Light Rain
2:12 PM 37.4 °F 27.8 °F 35.6 °F 93% 29.90 in 10.0 mi NNW 17.3 mph 26.5 mph N/A Rain Light Rain
2:52 PM 39.0 °F 29.9 °F 35.1 °F 86% 29.85 in 10.0 mi NNW 17.3 mph 26.5 mph N/A   Overcast
3:52 PM 37.9 °F 32.1 °F 35.1 °F 89% 29.87 in 5.0 mi North 8.1 mph - N/A Rain Rain
4:52 PM 37.9 °F 27.9 °F 35.1 °F 89% 29.85 in 6.0 mi NW 19.6 mph 25.3 mph 0.00 in   Overcast
5:26 PM 37.4 °F 28.5 °F 35.6 °F 93% 29.85 in 4.0 mi NW 15.0 mph 24.2 mph N/A   Overcast
5:37 PM 37.4 °F 28.5 °F 33.8 °F 87% 29.86 in 9.0 mi NW 15.0 mph 23.0 mph N/A   Overcast
5:52 PM 37.9 °F 29.2 °F 35.1 °F 89% 29.87 in 10.0 mi NW 15.0 mph - N/A   Overcast
6:26 PM 37.4 °F 29.8 °F 35.6 °F 93% 29.87 in 7.0 mi WNW 11.5 mph - N/A   Overcast
6:40 PM 37.4 °F 29.3 °F 35.6 °F 93% 29.88 in 2.5 mi NW 12.7 mph - N/A   Overcast
6:46 PM 37.4 °F 29.8 °F 35.6 °F 93% 29.88 in 4.0 mi NW 11.5 mph - N/A   Overcast
6:52 PM 37.0 °F 29.8 °F 35.1 °F 93% 29.89 in 4.0 mi WNW 10.4 mph - N/A   Overcast
7:08 PM 37.4 °F 28.9 °F 33.8 °F 87% 29.87 in 9.0 mi NW 13.8 mph - N/A   Overcast
7:52 PM 37.0 °F 31.0 °F 34.0 °F 89% 29.88 in 10.0 mi NW 8.1 mph - 0.00 in   Overcast
8:52 PM 36.0 °F 28.0 °F 33.1 °F 89% 29.92 in 10.0 mi WNW 11.5 mph - N/A   Overcast
9:52 PM 36.0 °F 27.5 °F 32.0 °F 86% 29.93 in 10.0 mi WNW 12.7 mph - N/A   Overcast
10:52 PM 35.1 °F 25.9 °F 32.0 °F 89% 29.94 in 9.0 mi WNW 13.8 mph 20.7 mph N/A   Overcast
11:25 PM 35.6 °F 28.0 °F 32.0 °F 87% 29.93 in 8.0 mi WNW 10.4 mph - N/A   Overcast
11:33 PM 35.6 °F 27.5 °F 32.0 °F 87% 29.92 in 10.0 mi NW 11.5 mph 20.7 mph N/A   Overcast
11:52 PM 35.1 °F 26.9 °F 32.0 °F 89% 29.93 in 9.0 mi WNW 11.5 mph - N/A   Overcast